| time (UTC) | temp F | wind direction | speed MPH | gust MPH | rain 1hr in | rain 24hr in | rain mn in | humidity % | barometer mb |
| 20260504044546 | 52 | 203 | 0.0 | 0.0 | 0.00 | 0.00 | 0.00 | 56 | 1008.5 |
| 20260504043044 | 53 | 174 | 0.0 | 0.0 | 0.00 | 0.00 | 0.00 | 55 | 1008.6 |
| 20260504041540 | 53 | 199 | 0.0 | 0.0 | 0.00 | 0.00 | 0.00 | 53 | 1008.5 |
| 20260504040038 | 54 | 210 | 0.0 | 0.0 | 0.00 | 0.00 | 0.00 | 52 | 1008.4 |
| 20260504034541 | 54 | 227 | 0.0 | 1.0 | 0.00 | 0.00 | 0.00 | 51 | 1008.4 |
| 20260504033037 | 54 | 144 | 0.0 | 1.0 | 0.00 | 0.00 | 0.00 | 52 | 1008.4 |
| 20260504031535 | 54 | 191 | 0.0 | 0.0 | 0.00 | 0.00 | 0.00 | 52 | 1008.5 |
| 20260504030040 | 54 | 174 | 0.0 | 0.0 | 0.00 | 0.00 | 0.00 | 51 | 1008.6 |
| 20260504024533 | 54 | 153 | 0.0 | 1.0 | 0.00 | 0.00 | 0.00 | 51 | 1008.6 |
| 20260504023034 | 54 | 174 | 0.0 | 0.0 | 0.00 | 0.00 | 0.00 | 53 | 1008.7 |
| 20260504021534 | 54 | 215 | 0.0 | 3.0 | 0.00 | 0.00 | 0.00 | 54 | 1008.9 |
| 20260504020035 | 53 | 179 | 0.0 | 0.0 | 0.00 | 0.00 | 0.00 | 55 | 1008.9 |
| 20260504014536 | 53 | 135 | 0.0 | 1.0 | 0.00 | 0.00 | 0.00 | 58 | 1008.9 |
| 20260504013034 | 52 | 162 | 0.0 | 4.0 | 0.00 | 0.00 | 0.00 | 61 | 1008.9 |
| 20260504011532 | 52 | 212 | 0.0 | 0.0 | 0.00 | 0.00 | 0.00 | 66 | 1009.2 |
| 20260504010030 | 51 | 172 | 0.0 | 0.0 | 0.00 | 0.00 | 0.00 | 67 | 1009.4 |
| 20260504004530 | 51 | 240 | 0.0 | 0.0 | 0.00 | 0.00 | 0.00 | 69 | 1009.3 |
| 20260504003029 | 52 | 352 | 0.0 | 1.0 | 0.00 | 0.00 | 0.00 | 69 | 1009.7 |
| 20260504001529 | 52 | 203 | 0.0 | 1.0 | 0.00 | 0.00 | 0.00 | 67 | 1009.7 |
| 20260504000027 | 53 | 212 | 0.0 | 2.0 | 0.00 | 0.00 | 0.00 | 63 | 1009.6 |
| 20260503234541 | 53 | 181 | 0.0 | 5.0 | 0.00 | 0.00 | 0.00 | 61 | 1009.5 |
| 20260503233026 | 54 | 241 | 0.0 | 4.0 | 0.00 | 0.00 | 0.00 | 57 | 1009.5 |
| 20260503231527 | 55 | 68 | 0.0 | 4.0 | 0.00 | 0.00 | 0.00 | 51 | 1009.3 |
| 20260503230026 | 55 | 217 | 0.0 | 6.0 | 0.00 | 0.00 | 0.00 | 49 | 1009.0 |
| 20260503224524 | 56 | 232 | 0.0 | 4.0 | 0.00 | 0.00 | 0.00 | 46 | 1008.9 |
| 20260503223024 | 56 | 288 | 0.0 | 10.0 | 0.00 | 0.00 | 0.00 | 43 | 1008.8 |
| 20260503221523 | 57 | 196 | 0.0 | 6.0 | 0.00 | 0.00 | 0.00 | 43 | 1008.7 |
| 20260503220038 | 57 | 150 | 0.0 | 0.0 | 0.00 | 0.00 | 0.00 | 44 | 1008.9 |
| 20260503214521 | 57 | 226 | 0.0 | 2.0 | 0.00 | 0.01 | 0.00 | 42 | 1009.1 |
| 20260503213024 | 58 | 204 | 0.0 | 0.0 | 0.00 | 0.01 | 0.00 | 43 | 1009.0 |
| 20260503211520 | 58 | 212 | 0.0 | 2.0 | 0.00 | 0.01 | 0.00 | 42 | 1008.8 |
| 20260503210018 | 58 | 201 | 1.0 | 10.0 | 0.00 | 0.01 | 0.00 | 39 | 1008.8 |
| 20260503204516 | 59 | 218 | 0.0 | 4.0 | 0.00 | 0.02 | 0.00 | 38 | 1008.9 |
| 20260503203026 | 58 | 268 | 0.0 | 6.0 | 0.00 | 0.02 | 0.00 | 39 | 1009.0 |
| 20260503201518 | 58 | 271 | 0.0 | 5.0 | 0.00 | 0.02 | 0.00 | 37 | 1009.3 |
| 20260503200011 | 58 | 102 | 0.0 | 2.0 | 0.00 | 0.02 | 0.00 | 38 | 1009.5 |
| 20260503194509 | 57 | 20 | 0.0 | 8.0 | 0.00 | 0.02 | 0.00 | 36 | 1009.8 |
| 20260503193008 | 58 | 219 | 0.0 | 7.0 | 0.00 | 0.02 | 0.00 | 37 | 1010.2 |
| 20260503191512 | 57 | 178 | 0.0 | 9.0 | 0.00 | 0.02 | 0.00 | 36 | 1010.4 |
| 20260503190002 | 57 | 215 | 0.0 | 6.0 | 0.00 | 0.02 | 0.00 | 36 | 1010.7 |
| 20260503184502 | 58 | 228 | 0.0 | 6.0 | 0.00 | 0.02 | 0.00 | 35 | 1011.0 |
| 20260503183110 | 57 | 206 | 0.0 | 10.0 | 0.00 | 0.02 | 0.00 | 36 | 1011.0 |
| 20260503181608 | 56 | 272 | 0.0 | 5.0 | 0.00 | 0.02 | 0.00 | 42 | 1011.2 |
| 20260503180056 | 55 | 220 | 0.0 | 7.0 | 0.00 | 0.02 | 0.00 | 42 | 1011.3 |
| 20260503174554 | 56 | 23 | 0.0 | 6.0 | 0.00 | 0.02 | 0.00 | 41 | 1011.2 |
| 20260503173059 | 56 | 75 | 0.0 | 1.0 | 0.00 | 0.02 | 0.00 | 44 | 1011.5 |
| 20260503171550 | 57 | 256 | 0.0 | 3.0 | 0.00 | 0.02 | 0.00 | 43 | 1011.7 |
| 20260503081545 | 35 | 205 | 0.0 | 0.0 | 0.00 | 0.02 | 0.00 | 88 | 1013.7 |
| 20260503071528 | 36 | 159 | 0.0 | 0.0 | 0.00 | 0.02 | 0.00 | 85 | 1013.7 |
| 20260503054514 | 40 | 193 | 0.0 | 0.0 | 0.00 | 0.02 | 0.00 | 78 | 1014.0 |
| 20260503053013 | 40 | 192 | 0.0 | 0.0 | 0.00 | 0.02 | 0.00 | 77 | 1014.1 |
| 20260503051506 | 40 | 198 | 0.0 | 0.0 | 0.00 | 0.02 | 0.00 | 77 | 1014.2 |